Terminal Aerodrome Forecast
Issued by NWS Indianapolis, IN

Home | Current Version | Previous Version | Text Only | Print | Product List | Glossary On
Versions: 1 2 3 4 5 6 7 8 9 10 11 12 13 14 15 16 17 18 19 20 21 22 23 24 25 26
000
FTUS43 KIND 012000 AAA
TAFIND
TAF AMD
KIND 012021Z 0120/0224 12006KT P6SM FEW070 SCT250
     FM020100 12005KT P6SM SCT250
     FM020900 14006KT P6SM BKN050 BKN250
     FM021800 18010KT P6SM VCSH OVC040=

USA.gov is the U.S. government's official web portal to all federal, state and local government web resources and services.